Location: Bidart
(43.4376°N, 1.5913°W)
Time: 07:17:08
(UTC+00:00)

USA 229 DEB - Pass Details

Date: 20 April 2026
Orbit: 844 x 1364 km, 63.4° (Epoch: 10 January)

Event Time Altitude Azimuth Distance (km) Brightness Sun altitude
Rises 22:48:33 0° 324° (NW) 3,907 7.7 -32.1°
Reaches altitude 10° 22:51:32 10° 335° (NNW) 3,031 6.9 -32.3°
Maximum altitude 22:57:53 30° 35° (NE) 2,038 5.4 -32.7°
Enters shadow 23:02:00 20° 79° (E) 2,595 5.6 -32.9°
